Location: Faicchio
(41.2833°N, 14.4833°E)
Time: 05:27:54
(UTC+00:00)

Cosmos 1378 Rocket - Pass Details

Date: 15 June 2025
Orbit: 594 x 621 km, 82.5° (Epoch: 16 July)

Event Time Altitude Azimuth Distance (km) Brightness Sun altitude
Exits shadow 00:40:27 38° 269° (W) 951 4.3 -21.5°
Maximum altitude 00:40:51 39° 283° (WNW) 935 4.3 -21.5°
Drops below altitude 10° 00:44:59 10° 352° (N) 1,988 6.9 -21.2°
Sets 00:47:21 0° 0° (N) 2,894 8.1 -21.0°
